Location: ?????????
(53.2086°N, 54.0693°E)
Time: 08:14:01
(UTC+00:00)

Cosmos 1943 Rocket - Pass Details

Date: 08 December 2019
Orbit: 812 x 844 km, 71.0° (Epoch: 24 January)

Event Time Altitude Azimuth Distance (km) Brightness Sun altitude
Rises 13:24:59 0° 325° (NW) 3,413 5.5 -10.9°
Reaches altitude 10° 13:28:04 10° 341° (NNW) 2,474 4.6 -11.3°
Maximum altitude 13:32:21 21° 30° (NNE) 1,791 3.5 -11.9°
Enters shadow 13:34:48 17° 63° (ENE) 2,035 3.5 -12.2°
